{"data":{"norad_id":64574,"intl_designator":"2025-135AY","name":"ICEYE-X56","alt_names":[],"object_type":"PAYLOAD","status":"ACTIVE","operator":null,"country":"FIN","launch_date":"2025-06-23","launch_site_code":"AFWTR","launch_vehicle":null,"mission":null,"orbit_class":"UNKNOWN","rcs_meters":null,"size_class":null,"mass_kg":null,"dimensions":null,"purposes":[],"wikipedia_slug":null,"has_3d_model":false,"image_url":null,"decayed_at":null,"tle_current":{"epoch":"2026-05-25T03:35:09.517344Z","epoch_age_seconds":65632,"freshness":"FRESH","line1":"1 64574U 25135AY  26145.14941571  .00002593  00000+0  23967-3 0  9990","line2":"2 64574  97.7720 260.2943 0003332  71.2391 288.9191 14.95456268 50485","mean_motion":14.95456268,"eccentricity":0.0003332,"inclination_deg":97.772,"raan_deg":260.2943,"arg_perigee_deg":71.2391,"mean_anomaly_deg":288.9191,"bstar":0.00023967,"rev_number":5048,"period_min":96.2916823991,"perigee_km":578.63812798477,"apogee_km":583.27566815845,"semimajor_km":6959.0938980716,"source":"CELESTRAK","updated_at":"2026-05-25T13:38:04.622091Z"}}}